Location: Utrecht
(52.0907°N, 5.1214°E)
Time: 06:23:38
(UTC+02:00)

NANOSAT C BR1 - Pass Details

Date: 06 July 2022
Orbit: 584 x 599 km, 98.0° (Epoch: 07 August)

Event Time Altitude Azimuth Distance (km) Brightness Sun altitude
Rises 03:53:04 0° 15° (NNE) 2,854 ? -10.1°
Reaches altitude 10° 03:55:15 10° 17° (NNE) 1,949 ? -9.9°
Maximum altitude 03:59:29 75° 103° (ESE) 626 ? -9.6°
Enters shadow 04:03:40 10° 190° (S) 1,928 ? -9.2°
